Regional Weather Roundup
Issued by NWS Midland/Odessa, TX

Skip options and go directly to product.
Home | Oldest Version | Previous Version | Current Version | All | Text Only | Save Text | Print | Product List | Glossary Off

Skip product version selection by date and time.   

558
ASUS44 KMAF 220610
RWRMAF
MIDLAND AREA WEATHER ROUNDUP
NATIONAL WEATHER SERVICE MIDLAND TX
100 AM CDT WED OCT 22 2014

...IN SOUTHWEST TEXAS AND SOUTHEAST NEW MEXICO...

CITY           SKY/WX    TMP DP  RH WIND       PRES   REMARKS
ALPINE         CLOUDY    61  56  84 S7        30.16S
ANDREWS        CLOUDY    64  57  77 SW5       30.09S
ARTESIA        NOT AVBL
BIG SPRING     MOCLDY    65  51  60 E5        30.08F
CARLSBAD       MOCLDY    63  60  90 SE7       30.06F
DRYDEN           N/A     65  64  97 E3        30.03F
FORT STOCKTON  CLEAR     59  58  96 CALM      30.07S
GUAD PASS      FOG       55  55 100 NE14      30.15S VSB 1/4
HOBBS          CLOUDY    61  59  94 S7        30.11S
MARFA          CLOUDY    57  55  94 CALM      30.15R
MIDLAND AIRPK  CLOUDY    68  58  71 S6        30.08S
MIDLAND INTL   CLOUDY    67  58  72 S8        30.07S
ODESSA         CLOUDY    65  59  81 SW6       30.08S
PECOS          CLEAR     61  58  91 E5        30.05S
PRESIDIO       CLOUDY    65  60  83 NE12      30.03S
SEMINOLE       CLOUDY    61  58  90 CALM      30.10S
SNYDER         PTCLDY    63  51  65 SE8       30.07F
WINK           CLOUDY    65  62  90 SE7       30.05F
$$
...OTHER STATIONS IN TEXAS...

CITY           SKY/WX    TMP DP  RH WIND       PRES   REMARKS
ABILENE        PTCLDY    63  50  62 SE9       30.07F
AMARILLO       MOCLDY    59  50  72 S14       30.08F
AUSTIN         MOCLDY    58  55  90 CALM      30.05S
BROWNSVILLE    MOCLDY    77  71  82 NE7       29.94F
CORPUS CHRISTI PTCLDY    73  66  78 E9        29.99F
DALLAS FTW     CLEAR     67  59  75 SE3       30.06F
DEL RIO        CLOUDY    69  68  96 CALM      30.00F FOG
EL PASO        PTCLDY    61  55  81 CALM      30.05S
HOUSTON INT    PTCLDY    65  61  87 CALM      30.03F
LUBBOCK        MOCLDY    63  50  62 S9        30.08F
SAN ANGELO     CLOUDY    70  54  56 S8        30.06S
SAN ANTONIO    MOCLDY    68  49  50 CALM      30.06R
WACO           MOCLDY    63  58  83 CALM      30.06F
WICHITA FALLS  NOT AVBL
$$
...OTHER LOCATIONS IN NEW MEXICO...

CITY           SKY/WX    TMP DP  RH WIND       PRES   REMARKS
ALAMAGORDO     NOT AVBL
ALBUQUERQUE    MOCLDY    58  47  66 CALM      30.11F
CANNON AFB     MOCLDY    58  56  95 SW5       30.11F FOG
CLOVIS         CLOUDY    57  54  88 S8        30.13S
HOLLOMAN AFB   PTCLDY    54  52  92 N3        30.07R
ROSWELL        CLOUDY    60  58  92 S5        30.07F
RUIDOSO        FOG       46  46 100 SE5       30.21F VSB 3/4
SANTA FE       MOCLDY    53  48  83 SE7       30.15S
TRUTH OR CONSE CLEAR     55  51  86 W5        30.09R
TUCUMCARI      MOCLDY    59  54  83 SW3       30.07S
$$

USA.gov is the U.S. government's official web portal to all federal, state and local government web resources and services.